DW4369 Weather Reports


time (UTC)temp
C
wind
direction
speed
KPH
gust
KPH
rain 1hr
cm
rain 24hr
cm
rain mn
cm
humidity
%
barometer
mb
20260504041519 12 239 0.0 0.0 0.00 0.00 0.00 78 1007.1
20260504040027 12 239 0.0 0.0 0.00 0.00 0.00 79 1007.1
20260504034516 12 239 0.0 0.0 0.00 0.00 0.00 78 1007.3
20260504033025 13 239 0.0 0.0 0.00 0.00 0.00 77 1007.4
20260504031516 13 239 0.0 0.0 0.00 0.00 0.00 77 1007.5
20260504030018 13 239 0.0 0.0 0.00 0.00 0.00 75 1007.4
20260504024525 13 242 0.0 0.0 0.00 0.00 0.00 73 1007.5
20260504023022 14 242 0.0 0.0 0.00 0.00 0.00 72 1007.6
20260504021530 15 242 0.0 0.0 0.00 0.00 0.00 69 1007.4
20260504020026 16 243 0.0 0.0 0.00 0.00 0.00 66 1007.4
20260504014532 16 249 0.0 0.0 0.00 0.00 0.00 64 1007.3
20260504013031 17 249 0.0 0.0 0.00 0.00 0.00 61 1007.3
20260504011538 17 257 0.0 0.0 0.00 0.00 0.00 60 1007.0
20260504010027 18 238 0.0 14.5 0.00 0.00 0.00 58 1007.0
20260504004529 17 253 0.0 0.0 0.00 0.00 0.00 63 1007.0
20260504003015 18 248 0.0 0.0 0.00 0.00 0.00 60 1006.5
20260504001530 18 232 0.0 8.0 0.00 0.00 0.00 57 1006.5
20260504000036 18 252 0.0 8.0 0.00 0.00 0.00 55 1006.6
20260503234537 19 211 0.0 3.2 0.00 0.00 0.00 54 1006.7
20260503233027 20 233 0.0 16.1 0.00 0.00 0.00 52 1006.6
20260503231535 20 239 1.6 14.5 0.00 0.00 0.00 52 1006.5
20260503230034 20 250 1.6 22.5 0.00 0.00 0.00 50 1006.6
20260503224520 20 204 6.4 25.7 0.00 0.00 0.00 50 1006.6
20260503223019 18 248 4.8 24.1 0.00 0.00 0.00 51 1006.5
20260503221601 18 227 9.7 35.4 0.00 0.00 0.00 53 1006.6
20260503220017 18 243 3.2 20.9 0.00 0.00 0.00 55 1007.0
20260503214524 17 186 11.3 29.0 0.00 0.00 0.00 57 1006.8
20260503213032 17 223 4.8 25.7 0.00 0.00 0.00 60 1006.9
20260503211522 18 181 12.9 30.6 0.00 0.00 0.00 54 1007.5
20260503210022 17 205 17.7 38.6 0.00 0.00 0.00 52 1006.8
20260503204526 17 239 16.1 32.2 0.00 0.00 0.00 51 1007.4
20260503203054 18 225 14.5 24.1 0.00 0.00 0.00 50 1008.3
20260503201514 18 250 4.8 25.7 0.00 0.00 0.00 52 1008.7
20260503200026 17 179 8.0 30.6 0.00 0.00 0.00 54 1008.5
20260503194515 17 187 8.0 27.4 0.00 0.00 0.00 53 1008.6
20260503193040 17 194 8.0 29.0 0.00 0.00 0.00 51 1009.0
20260503191525 18 166 12.9 38.6 0.00 0.00 0.00 50 1009.4
20260503190016 17 245 8.0 20.9 0.00 0.00 0.00 50 1009.9
20260503184521 17 221 11.3 33.8 0.00 0.00 0.00 50 1010.5
20260503183027 17 188 11.3 29.0 0.00 0.00 0.00 51 1011.0
20260503181537 16 256 14.5 32.2 0.00 0.00 0.00 53 1011.4
20260503180020 16 243 8.0 22.5 0.00 0.00 0.00 53 1012.0
20260503174531 16 222 9.7 19.3 0.00 0.00 0.00 52 1011.8
20260503173015 16 236 8.0 25.7 0.00 0.00 0.00 52 1012.2
20260503171522 17 238 6.4 25.7 0.00 0.00 0.00 49 1012.3
20260503081519 4 210 0.0 0.0 0.00 0.00 0.00 84 1016.0
20260503071522 4 201 0.0 0.0 0.00 0.00 0.00 82 1016.1
20260503054518 5 232 0.0 0.0 0.00 0.00 0.00 77 1016.7
20260503053047 6 211 0.0 0.0 0.00 0.00 0.00 76 1016.8
20260503051536 6 221 0.0 0.0 0.00 0.00 0.00 74 1016.8
20260503050036 6 207 0.0 0.0 0.00 0.00 0.00 74 1016.8
20260503044532 6 203 0.0 0.0 0.00 0.00 0.00 73 1016.8
20260503043041 6 215 0.0 0.0 0.00 0.00 0.00 72 1016.8